Malaga, Spain

10:21 AM CET en Noviembre 25, 2017 (GMT +0100)
Malaga

Tiempo Historia de LEMG - Septiembre, 2017

Change the Weather History Date:

Jueves, Septiembre 14, 2017

  Actual Average Record
Temperature  
Temperatura media 76 ° F -  
Temperatura máxima 91 ° F 76 ° F 94 ° F (2014)
Temperatura mínima 62 ° F 60 ° F 59 ° F (2000)
Cooling Degree Days 12    
Growing Degree Days 26 (Base 50)    
Moisture  
Punto de rocío 59 ° F    
Average Humidity 56    
Maximum Humidity 88    
Minimum Humidity 16    
Precipitación  
Precipitación 0.00 pul 0.04 pul - ()
Presión al nivel del mar  
Presión al nivel del mar 30.04 pul    
Viento  
Velocidad del viento 5 mph ()    
Velocidad máxima del viento 13 mph    
Max Gust Speed -    
Visibilidad 16.2 Millas    
Eventos      
Averages and records for this station are not official NWS values.
T = Trace of Precipitation, MM = Missing Value Source: Averaged Metar Reports

Daily Weather History Graph

Daily Weather History Graph

Search for Another Location

Airport or City:

Trip Planner

Search our weather history database for the weather conditions in past years. The results will help you decide how hot, cold, wet, or windy it might be!

Date:

Astronomía

Sep. 14, 2017 Salida Puesta
Hora real 7:59 AM CEST 8:26 PM CEST
Crepúsculo civil 7:33 AM CEST 8:52 PM CEST
Crepúsculo náutico 7:02 AM CEST 9:23 PM CEST
Crepúsculo astronómico 6:31 AM CEST 9:54 PM CEST
Luna 1:49 AM CEST (9/14) 4:23 PM CEST (9/14)
Horas de luz 13h 19m
Horas de luz
12h 27m
Cuarto menguante, 37% of the Moon is Illuminated
Sep 14
Cuarto menguante
Sep 20
Nueva
Sep 28
Cuarto creciente
Oct 5
Luna llena
Oct 12
Cuarto menguante

Hourly Weather History & Observations

Hora (CEST) Temp. Índice de calor Punto de rocío Humedad Presión Visibilidad Wind Dir Velocidad del viento Velocidad de ráfagas Precip Eventos Condiciones
12:00 AM 71 ° F - 65 ° F 76% 30.16 pul - Sin viento Sin viento - -  
12:00 AM 71.6 ° F - 64.4 ° F 78% 30.15 pul - Sin viento Sin viento - N/A   Despejado
12:30 AM 68.0 ° F - 62.6 ° F 83% 30.15 pul - ONO 2.3 mph - N/A   Despejado
1:00 AM 71 ° F - 62 ° F 67% 30.15 pul - ONO 3.5 mph - -  
1:00 AM 68.0 ° F - 60.8 ° F 78% 30.15 pul - ONO 2.3 mph - N/A   Despejado
1:30 AM 68.0 ° F - 60.8 ° F 78% 30.15 pul - ONO 6.9 mph - N/A   Despejado
2:00 AM 71 ° F - 62 ° F 64% 30.14 pul 12 mi ONO 8.1 mph - -   Despejado
2:00 AM 69.8 ° F - 60.8 ° F 73% 30.12 pul - ONO 6.9 mph - N/A   Despejado
2:30 AM 68.0 ° F - 59.0 ° F 73% 30.12 pul - ONO 6.9 mph - N/A   Despejado
3:00 AM 69 ° F - 63 ° F 74% 30.13 pul - ONO 10.4 mph - -  
3:00 AM 66.2 ° F - 60.8 ° F 83% 30.12 pul - ONO 9.2 mph - N/A   Despejado
3:30 AM 66.2 ° F - 60.8 ° F 83% 30.12 pul - ONO 9.2 mph - N/A   Despejado
4:00 AM 69 ° F - 62 ° F 72% 30.11 pul - ONO 9.2 mph - -  
4:00 AM 66.2 ° F - 60.8 ° F 83% 30.09 pul - ONO 9.2 mph - N/A   Despejado
4:30 AM 64.4 ° F - 60.8 ° F 88% 30.09 pul - ONO 9.2 mph - N/A   Despejado
5:00 AM 67 ° F - 60 ° F 73% 30.10 pul - ONO 4.6 mph - -  
5:00 AM 64.4 ° F - 59.0 ° F 83% 30.09 pul - ONO 4.6 mph - N/A   Despejado
5:30 AM 64.4 ° F - 59.0 ° F 83% 30.09 pul - ONO 8.1 mph - N/A   Despejado
6:00 AM 67 ° F - 58 ° F 67% 30.10 pul - ONO 8.1 mph - -  
6:00 AM 64.4 ° F - 59.0 ° F 83% 30.09 pul - ONO 8.1 mph - N/A   Despejado
6:30 AM 64.4 ° F - 59.0 ° F 83% 30.09 pul - ONO 5.8 mph - N/A   Despejado
7:00 AM 66 ° F - 59 ° F 73% 30.09 pul - Oeste 2.3 mph - -  
7:00 AM 64.4 ° F - 59.0 ° F 83% 30.09 pul - Oeste 2.3 mph - N/A   Despejado
7:30 AM 62.6 ° F - 59.0 ° F 88% 30.09 pul - ONO 3.5 mph - N/A   Despejado
8:00 AM 64 ° F - 58 ° F 76% 30.09 pul 19 mi Oeste 6.9 mph - -   Despejado
8:00 AM 62.6 ° F - 57.2 ° F 82% 30.09 pul - ONO 6.9 mph - N/A   Despejado
8:30 AM 64.4 ° F - 57.2 ° F 77% 30.09 pul - Oeste 4.6 mph - N/A   Despejado
9:00 AM 66 ° F - 57 ° F 66% 30.10 pul 25 mi Oeste 4.6 mph - -   Despejado
9:00 AM 66.2 ° F - 57.2 ° F 73% 30.09 pul - Oeste 4.6 mph - N/A   Despejado
9:30 AM 68.0 ° F - 57.2 ° F 68% 30.09 pul - ONO 2.3 mph - N/A   Despejado
10:00 AM 69.8 ° F - 57.2 ° F 64% 30.09 pul - Variable 1.2 mph - N/A   Despejado
10:30 AM 71.6 ° F - 59.0 ° F 64% 30.09 pul - Sin viento Sin viento - N/A   Despejado
11:00 AM 77 ° F - 59 ° F 44% 30.10 pul 19 mi Sin viento Sin viento - -   Despejado
11:00 AM 77.0 ° F - 59.0 ° F 54% 30.09 pul - Sin viento Sin viento - N/A   Despejado
11:30 AM 77.0 ° F - 60.8 ° F 57% 30.09 pul - ESE 4.6 mph - N/A   Despejado
12:00 PM 79 ° F - 64 ° F 51% 30.09 pul - ESE 6.9 mph - -  
12:00 PM 77.0 ° F - 62.6 ° F 61% 30.09 pul - ESE 5.8 mph - N/A   Despejado
12:30 PM 77.0 ° F - 64.4 ° F 65% 30.06 pul - ESE 4.6 mph - N/A   Despejado
1:00 PM 86 ° F - 65 ° F 39% 30.07 pul - NNE 5.8 mph - -  
1:00 PM 82.4 ° F 83.9 ° F 64.4 ° F 54% 30.06 pul - NNE 5.8 mph - N/A   Despejado
1:30 PM 82.4 ° F 84.6 ° F 66.2 ° F 58% 30.06 pul - Norte 9.2 mph - N/A   Despejado
2:00 PM 84.2 ° F 87.3 ° F 68.0 ° F 58% 30.04 pul - NNE 9.2 mph - N/A   Despejado
2:30 PM 89.6 ° F 89.5 ° F 60.8 ° F 38% 30.04 pul - Sur 4.6 mph - N/A   Despejado
3:00 PM 91 ° F - 56 ° F 21% 30.01 pul 19 mi Sur 12.7 mph - -   Despejado
3:00 PM 91.4 ° F 89.1 ° F 53.6 ° F 28% 30.01 pul - Sur 11.5 mph - N/A   Despejado
3:30 PM 89.6 ° F 87.3 ° F 53.6 ° F 29% 30.01 pul - Sur 12.7 mph - N/A   Despejado
4:00 PM 90 ° F - 58 ° F 25% 29.98 pul - Sur 10.4 mph - -  
4:00 PM 91.4 ° F 89.9 ° F 57.2 ° F 31% 29.98 pul - Sur 10.4 mph - N/A   Despejado
4:30 PM 89.6 ° F 87.7 ° F 55.4 ° F 31% 29.95 pul - Sur 11.5 mph - N/A   Despejado
5:00 PM 91 ° F - 58 ° F 23% 29.95 pul 19 mi Sur 11.5 mph - -   Nubes dispersas
5:00 PM 89.6 ° F 87.7 ° F 55.4 ° F 31% 29.95 pul - Sur 11.5 mph - N/A   Despejado
5:30 PM 89.6 ° F 88.1 ° F 57.2 ° F 33% 29.95 pul - Sur 11.5 mph - N/A   Despejado
6:00 PM 89 ° F - 61 ° F 29% 29.94 pul - SSE 8.1 mph - -  
6:00 PM 87.8 ° F 86.5 ° F 57.2 ° F 35% 29.95 pul - SSE 8.1 mph - N/A   Despejado
6:30 PM 84.2 ° F 84.4 ° F 60.8 ° F 45% 29.92 pul - NNE 6.9 mph - N/A   Despejado
7:00 PM 83 ° F - 64 ° F 42% 29.93 pul - NNE 9.2 mph - -  
7:00 PM 82.4 ° F 83.4 ° F 62.6 ° F 51% 29.92 pul - NNE 8.1 mph - N/A   Despejado
7:30 PM 80.6 ° F 81.5 ° F 60.8 ° F 51% 29.92 pul - Norte 4.6 mph - N/A   Despejado
8:00 PM 82.4 ° F 82.5 ° F 59.0 ° F 45% 29.92 pul - Variable 2.3 mph - N/A   Despejado
8:30 PM 82.4 ° F 82.5 ° F 59.0 ° F 45% 29.92 pul - Variable 1.2 mph - N/A   Despejado
9:00 PM 83 ° F - 59 ° F 33% 29.93 pul - Oeste 1.2 mph - -  
9:00 PM 82.4 ° F 82.5 ° F 59.0 ° F 45% 29.92 pul - Variable 1.2 mph - N/A   Despejado
9:30 PM 84.2 ° F 82.8 ° F 53.6 ° F 35% 29.92 pul - Sur 2.3 mph - N/A   Despejado
10:00 PM 84 ° F - 56 ° F 27% 29.93 pul - Sur 6.9 mph - -  
10:00 PM 84.2 ° F 82.8 ° F 53.6 ° F 35% 29.92 pul - Sur 3.5 mph - N/A   Despejado
10:30 PM 82.4 ° F - 50.0 ° F 32% 29.92 pul - SSO 3.5 mph - N/A   Despejado
11:00 PM 84 ° F - 45 ° F 16% 29.94 pul 9 mi Oeste 8.1 mph - -   Muy nublado
11:00 PM 86.0 ° F - 42.8 ° F 22% 29.95 pul - Oeste 8.1 mph - N/A   Despejado
11:30 PM 86.0 ° F - 42.8 ° F 22% 29.95 pul - Oeste 9.2 mph - N/A   Despejado